This is the latest recevied weather packets stored in our database for station/object AD0YN. If no packets are shown the sender has not sent any weather packets the latest 1 day(s).
| Time | Temp. | Humidity | Pressure | Rain* | Wind** | Luminosity | Snow |
|---|---|---|---|---|---|---|---|
| 1836274696 | 20.56° C | 75% | 1016.6 hPa | 0 mm | 0 m/s | 0 W/m² | - |
| 1836274549 | 19.44° C | 82% | 1016.9 hPa | 0 mm | 0 m/s | 0 W/m² | - |
| 1836274394 | 20° C | 75% | 1016.5 hPa | 0 mm | 0 m/s | 0 W/m² | - |
| 1836274247 | 20.56° C | 77% | 1016.9 hPa | 0 mm | 0 m/s | 0 W/m² | - |
| 1836274093 | 18.89° C | 84% | 1016.7 hPa | 0 mm | 0 m/s | 0 W/m² | - |
| 1778054222 | 9.44° C | 59% | 1013.5 hPa | 0 mm | 0 m/s | 0 W/m² | - |
| 1778053918 | 9.44° C | 59% | 1013.3 hPa | 0 mm | 0.45 m/s, 279° | 0 W/m² | - |
| 1778053616 | 9.44° C | 58% | 1013.7 hPa | 0 mm | 0 m/s | 0 W/m² | - |
| 1778053313 | 9.44° C | 60% | 1013.8 hPa | 0 mm | 0 m/s | 0 W/m² | - |
| 1778053010 | 9.44° C | 58% | 1013.6 hPa | 0 mm | 0 m/s | 0 W/m² | - |
| 1778052708 | 9.44° C | 58% | 1013.8 hPa | 0 mm | 0 m/s | 0 W/m² | - |
| 1778052404 | 9.44° C | 58% | 1013.6 hPa | 0 mm | 0 m/s | 0 W/m² | - |
| 1778052102 | 10° C | 58% | 1013.5 hPa | 0 mm | 0 m/s | 0 W/m² | - |
| 1778051800 | 10° C | 57% | 1013.5 hPa | 0 mm | 0.45 m/s, 290° | 0 W/m² | - |
| 1778051497 | 10° C | 57% | 1013.3 hPa | 0 mm | 0.89 m/s, 288° | 0 W/m² | - |
| 1778051194 | 10° C | 56% | 1013.2 hPa | 0 mm | 0.45 m/s, 318° | 0 W/m² | - |
| 1778050891 | 9.44° C | 58% | 1013.3 hPa | 0 mm | 0 m/s | 0 W/m² | - |
| 1778050589 | 10° C | 59% | 1013.3 hPa | 0 mm | 0 m/s | 0 W/m² | - |
| 1778050285 | 10° C | 59% | 1013.5 hPa | 0 mm | 0 m/s | 0 W/m² | - |
| 1778049982 | 10° C | 57% | 1013.5 hPa | 0 mm | 0 m/s | 0 W/m² | - |
| 1778049678 | 10° C | 57% | 1013.6 hPa | 0 mm | 0 m/s | 0 W/m² | - |
| 1778049376 | 10° C | 58% | 1013.8 hPa | 0 mm | 0 m/s | 0 W/m² | - |
| 1778049073 | 10° C | 60% | 1013.7 hPa | 0 mm | 0 m/s | 0 W/m² | - |
| 1778048772 | 10° C | 58% | 1013.8 hPa | 0 mm | 0 m/s | 0 W/m² | - |
| 1778048468 | 10° C | 60% | 1013.7 hPa | 0 mm | 0 m/s | 0 W/m² | - |
* Rain latest hour (hover to see other rain measurements)
** Current wind speed in m/s (hover to see current wind gust speed)